User: anonymous   Login
Location: Unspecified
(0.0000°N, 0.0000°E)
Time: 10:14:08
(UTC+00:00)
Language:

Nimbus 4 - Orbit

View from above orbital plane
View from above orbital plane
View from above satellite
View from above satellite

Ground track
Ground track

The orbit data is extracted from the following two-line orbital elements,

1  4362U 70025A   17116.83642411 -.00000026 +00000-0 +33274-4 0  9996
2  4362 100.0215 021.5074 0007082 205.2342 204.5837 13.44585193308182
Epoch (UTC): 26 April 2017 20:04:27
Eccentricity: 0.0007082
inclination: 100.0215°
perigee height: 1087 km
apogee height: 1097 km
right ascension of ascending node: 21.5074°
argument of perigee: 205.2342°
revolutions per day: 13.44585193
mean anomaly at epoch: 204.5837°
orbit number at epoch: 30818

The dashed part of the orbit path shows where the satellite is in the earth's shadow,  

DLR